DateTimeUTC,F1_A11,F1_S11,BsB_S11,BsG_S11,BsR_S11,BbsB_S11,BbsG_S11,BbsR_S11,BaB_A11,BaG_A11,BaR_A11,Tu_S11,T_S11,Uu_S11,U_S11,P_S11,T1_A11
2021-07-04T13:00:00Z,00000200,20000000,,,,,,,0000.01,-000.08,-000.23,19.0,25.4,09.1,06.1,0670.8,31.2
2021-07-04T13:01:00Z,00000200,20000000,,,,,,,0000.23,0000.07,0000.20,19.0,25.4,09.0,06.1,0670.8,31.2
2021-07-04T13:02:00Z,00000200,20000000,,,,,,,-000.54,-000.18,-000.30,19.0,25.4,09.0,06.1,0670.8,31.1
2021-07-04T13:03:00Z,00000200,60000000,,,,,,,0000.79,0000.48,0000.37,19.0,25.4,09.0,06.1,0670.8,31.1
2021-07-04T13:04:00Z,00000200,40000000,0000.54,0000.40,0000.18,0000.62,0000.12,0000.07,0000.18,0000.19,0000.03,19.0,25.2,09.3,06.4,0671.8,31.1
2021-07-04T13:05:00Z,00000200,00000000,0000.68,0000.71,0000.48,0000.31,-000.18,0000.55,-000.05,-000.21,0000.08,19.1,25.2,09.4,06.5,0671.8,31.1
2021-07-04T13:06:00Z,00000200,00000000,0000.63,0000.57,0000.71,0000.28,-000.05,0000.25,-000.09,0000.21,0000.14,19.1,25.2,09.4,06.5,0671.8,31.1
2021-07-04T13:07:00Z,00000200,00000000,0000.42,0000.74,0000.19,0000.11,0000.04,0000.17,0000.61,0000.27,0000.29,19.1,25.2,09.4,06.5,0671.9,31.1
2021-07-04T13:08:00Z,00000200,00000000,0000.42,0000.47,0000.32,0000.26,0000.19,0000.32,0000.30,0000.48,0000.36,19.0,25.2,09.6,06.6,0671.8,31.1
2021-07-04T13:09:00Z,00000200,00010000,0001.29,0000.44,0000.18,0000.05,0000.25,0000.56,-000.20,0000.21,0000.05,19.1,25.2,09.6,06.6,0671.8,31.1
2021-07-04T13:10:00Z,00000200,00000000,0001.47,0000.61,0000.17,0000.77,0000.04,0000.26,-000.00,-000.65,-000.32,19.1,25.2,09.5,06.5,0671.7,31.1
2021-07-04T13:11:00Z,00000200,00000000,0000.35,0000.45,0000.50,0000.68,0000.22,0000.32,0000.05,0000.19,-000.22,19.1,25.2,09.3,06.4,0671.7,31.1
2021-07-04T13:12:00Z,00000200,00000000,0000.38,0000.33,0000.19,0000.11,0000.19,0000.12,-000.00,0000.28,0000.19,19.1,25.1,09.0,06.2,0671.7,31.1
2021-07-04T13:13:00Z,00000200,00000000,0000.84,0000.60,0000.28,-000.02,0000.40,0000.15,0000.16,0000.22,0000.30,19.1,25.1,09.2,06.3,0671.8,31.1
2021-07-04T13:14:00Z,00000200,00000000,0000.42,0000.50,0000.29,0000.37,0000.02,0000.15,-000.02,-000.11,-000.09,19.1,25.1,09.6,06.6,0671.8,31.1
2021-07-04T13:15:00Z,00000200,00000000,0000.38,0000.16,0000.35,-000.16,0000.05,0000.16,0000.25,0000.26,0000.06,19.0,25.1,09.5,06.6,0671.8,31.1
2021-07-04T13:16:00Z,00000200,00000000,0001.09,0000.27,0000.56,0000.39,-000.30,0000.01,0000.10,0000.31,0000.29,19.0,25.1,09.4,06.5,0671.8,31.1
2021-07-04T13:17:00Z,00000200,00000000,0000.38,0001.02,0000.22,-000.04,0000.27,0000.08,-000.06,-000.11,0000.03,19.0,25.1,09.4,06.5,0671.7,31.1
2021-07-04T13:18:00Z,00000200,00000000,0001.06,0000.42,0000.41,0000.22,0000.25,0000.27,0000.47,0000.28,0000.28,19.0,25.1,09.4,06.5,0671.8,31.1
2021-07-04T13:19:00Z,00000200,00000000,0001.26,0000.37,0000.50,0000.15,0000.21,0000.41,-000.13,-000.41,-000.35,19.0,25.1,09.3,06.4,0671.7,31.1
2021-07-04T13:20:00Z,00000200,00000000,0001.00,0000.62,-000.02,0000.50,0000.27,0000.34,0000.35,0000.62,0000.19,19.0,25.1,09.1,06.3,0671.7,31.1
2021-07-04T13:21:00Z,00000200,00000000,0001.31,0000.50,0000.61,0000.44,0000.06,0000.55,-000.17,0000.03,0000.14,19.0,25.1,09.1,06.3,0671.8,31.1
2021-07-04T13:22:00Z,00000200,00000000,0000.79,0000.49,0000.24,0000.47,0000.19,0000.22,0000.31,-000.07,0000.13,19.0,25.1,09.2,06.4,0671.7,31.1
2021-07-04T13:23:00Z,00000200,00000000,0000.89,0000.22,0000.25,0000.16,0000.14,0000.34,-000.10,0000.28,0000.37,19.0,25.1,09.3,06.4,0671.8,31.1
2021-07-04T13:24:00Z,00000200,00000000,0000.42,0000.57,0000.38,0000.57,0000.07,0000.12,0000.31,0000.05,-000.52,19.0,25.1,09.4,06.5,0671.8,31.1
2021-07-04T13:25:00Z,00000200,00000000,0001.52,0000.24,0000.21,0000.67,0000.23,0000.68,-000.36,-000.10,-000.18,19.0,25.1,09.2,06.4,0671.7,31.1
2021-07-04T13:26:00Z,00000200,00000000,0000.52,0000.66,0000.44,-000.04,-000.02,-000.01,0000.64,0000.29,0000.65,19.0,25.1,09.3,06.5,0671.8,31.1
2021-07-04T13:27:00Z,00000200,00000000,0000.52,0000.23,0000.26,0000.01,0000.19,0000.31,0000.35,0000.06,-000.10,19.0,25.1,09.4,06.5,0671.8,31.1
2021-07-04T13:28:00Z,00000200,00000000,0001.25,0000.57,0000.53,0001.33,-000.04,0000.47,0000.01,0000.06,0000.26,19.0,25.1,09.4,06.5,0671.8,31.1
2021-07-04T13:29:00Z,00000200,00000000,0000.63,0000.50,-000.14,0000.45,0000.27,-000.13,-000.47,-000.01,-000.20,19.0,25.1,09.4,06.5,0671.7,31.1
2021-07-04T13:30:00Z,00000200,00000000,0000.94,0000.35,0000.29,0000.19,0000.38,0000.24,0000.78,0000.12,0000.29,19.0,25.1,09.2,06.4,0671.7,31.1
2021-07-04T13:31:00Z,00000200,00000000,0000.62,0000.27,0000.39,0000.35,0000.21,0000.36,-000.43,0000.19,0000.30,19.0,25.1,09.3,06.4,0671.7,31.1
2021-07-04T13:32:00Z,00000200,00000000,0000.67,0000.52,0000.31,0001.29,0000.21,0000.11,0000.44,-000.08,-000.35,19.0,25.1,09.2,06.4,0671.7,31.1
2021-07-04T13:33:00Z,00000200,00000000,0000.54,0000.78,0000.41,-000.26,0000.22,0000.22,0000.45,0000.78,0000.41,19.0,25.1,09.3,06.5,0671.7,31.1
2021-07-04T13:34:00Z,00000200,00000000,0000.95,0000.74,0000.14,0000.45,0000.31,0000.05,-000.16,0000.02,0000.03,19.0,25.1,09.6,06.6,0671.7,31.1
2021-07-04T13:35:00Z,00000200,00000000,0001.12,0000.50,0000.00,0000.04,0000.11,-000.02,-000.04,-000.06,0000.15,19.0,25.1,09.6,06.6,0671.8,31.1
2021-07-04T13:36:00Z,00000200,00000000,0001.33,0000.36,0000.62,0000.65,0000.21,0000.52,0000.68,0000.28,0000.33,19.0,25.1,09.8,06.8,0671.8,31.1
2021-07-04T13:37:00Z,00000200,00000000,0000.99,0000.33,0000.55,0000.45,0000.11,0000.64,0000.03,-000.05,0000.11,19.0,25.1,09.8,06.8,0671.7,31.1
2021-07-04T13:38:00Z,00000200,00000000,-000.02,0000.67,0000.51,0000.55,-000.02,0000.18,0000.02,0000.05,-000.25,19.1,25.1,09.5,06.6,0671.7,31.2
2021-07-04T13:39:00Z,00000200,00000000,0000.09,0000.37,0000.36,0000.38,0000.27,0000.33,-000.08,-000.00,0000.01,19.2,25.2,09.5,06.6,0671.7,31.2
2021-07-04T13:40:00Z,00000200,00000000,0000.78,0000.75,0000.46,0000.34,0000.35,0000.36,0000.54,0000.28,0000.56,19.2,25.2,09.6,06.7,0671.8,31.2
2021-07-04T13:41:00Z,00000200,00000000,0000.89,0000.58,0000.13,0000.51,-000.15,0000.23,-000.16,0000.18,-000.24,19.3,25.2,09.6,06.7,0671.7,31.2
2021-07-04T13:42:00Z,00000200,00000000,0001.15,0000.66,0000.39,0000.41,0000.02,-000.04,0000.23,-000.10,0000.01,19.3,25.3,09.5,06.6,0671.7,31.2
2021-07-04T13:43:00Z,00000200,00000000,0000.72,0000.39,-000.09,0000.46,0000.24,0000.12,-000.08,0000.48,0000.20,19.3,25.3,09.6,06.7,0671.7,31.2
2021-07-04T13:44:00Z,00000200,00000000,0000.26,0000.40,0000.20,0000.58,0000.02,0000.07,0000.13,-000.08,-000.25,19.3,25.3,09.4,06.5,0671.7,31.2
2021-07-04T13:45:00Z,00000200,00000000,0000.16,0000.49,0000.22,0000.40,0000.25,0000.06,0000.28,0000.16,0000.44,19.3,25.3,09.6,06.6,0671.8,31.2
2021-07-04T13:46:00Z,00000200,00000000,0000.08,0000.38,0000.25,0000.13,0000.05,0000.22,-000.08,-000.15,0000.19,19.3,25.2,09.6,06.7,0671.7,31.2
2021-07-04T13:47:00Z,00000200,00000000,0001.08,0000.54,0000.24,0000.40,0000.05,0000.17,0000.49,0000.38,0000.05,19.3,25.3,09.5,06.6,0671.7,31.2
2021-07-04T13:48:00Z,00000200,00000000,0001.25,0000.31,0000.20,0000.47,-000.12,0000.36,0000.11,0000.29,-000.11,19.3,25.3,09.7,06.7,0671.8,31.1
2021-07-04T13:49:00Z,00000200,00000000,0000.42,0000.36,0000.36,-000.66,-000.05,0000.03,0000.12,0000.17,0000.07,19.3,25.3,09.7,06.7,0671.7,31.1
2021-07-04T13:50:00Z,00000200,00000000,0000.83,0000.20,0000.12,0000.26,0000.06,-000.12,-000.12,-000.35,0000.06,19.3,25.3,09.7,06.8,0671.8,31.1
2021-07-04T13:51:00Z,00000200,00000000,0001.14,0000.73,0000.35,0000.04,0000.17,0000.32,0000.13,0000.33,0000.24,19.3,25.3,09.4,06.5,0671.7,31.1
2021-07-04T13:52:00Z,00000200,00000000,0000.34,0000.47,0000.14,0000.29,0000.07,0000.14,-000.24,-000.03,-000.01,19.3,25.3,09.4,06.5,0671.7,31.1
2021-07-04T13:53:00Z,00000200,00000000,0001.27,0000.77,0000.31,0000.32,0000.09,0000.26,0000.52,0000.06,0000.14,19.3,25.2,09.6,06.6,0671.8,31.1
2021-07-04T13:54:00Z,00000200,00000000,0000.89,0000.50,0000.24,0000.77,0000.02,0000.06,0000.20,0000.19,0000.12,19.3,25.2,09.8,06.8,0671.9,31.1
2021-07-04T13:55:00Z,00000200,00000000,0000.46,0000.40,0000.22,0000.73,-000.12,0000.67,-000.13,0000.02,0000.25,19.3,25.2,09.6,06.6,0671.8,31.1
2021-07-04T13:56:00Z,00000200,00000000,0001.09,0000.29,0000.07,0000.39,0000.27,0000.31,0000.09,0000.15,-000.22,19.3,25.2,09.4,06.5,0671.7,31.1
2021-07-04T13:57:00Z,00000200,40000000,,,,,,,-000.08,-000.12,-000.05,19.3,25.3,09.1,06.3,0671.7,31.1
2021-07-04T13:58:00Z,00000200,60000000,,,,,,,-000.01,-000.16,-000.31,19.1,25.4,09.3,06.3,0670.8,31.1
2021-07-04T13:59:00Z,00000200,20000000,,,,,,,-000.36,-000.15,0000.12,19.1,25.5,09.2,06.2,0670.7,31.2
